| time (UTC) | temp C | wind direction | speed KPH | gust KPH | rain 1hr cm | rain 24hr cm | rain mn cm | humidity % | barometer mb |
| 20260502211558 | 17 | 124 | 0.0 | 6.4 | 0.00 | 0.00 | 0.00 | 44 | 1013.3 |
| 20260502210056 | 17 | 114 | 0.0 | 11.3 | 0.00 | 0.00 | 0.00 | 40 | 1013.3 |
| 20260502204600 | 17 | 140 | 0.0 | 8.0 | 0.00 | 0.00 | 0.00 | 46 | 1013.3 |
| 20260502203118 | 17 | 342 | 0.0 | 6.4 | 0.00 | 0.00 | 0.00 | 44 | 1013.3 |
| 20260502201604 | 17 | 98 | 0.0 | 9.7 | 0.00 | 0.00 | 0.00 | 42 | 1013.3 |
| 20260502200059 | 17 | 136 | 0.0 | 9.7 | 0.00 | 0.00 | 0.00 | 43 | 1013.5 |
| 20260502194555 | 18 | 151 | 0.0 | 1.6 | 0.00 | 0.00 | 0.00 | 41 | 1013.5 |
| 20260502193101 | 17 | 46 | 0.0 | 9.7 | 0.00 | 0.00 | 0.00 | 40 | 1013.4 |
| 20260502191550 | 17 | 264 | 0.0 | 3.2 | 0.00 | 0.00 | 0.00 | 41 | 1013.5 |
| 20260502190049 | 17 | 119 | 0.0 | 4.8 | 0.00 | 0.00 | 0.00 | 41 | 1013.6 |
| 20260502184554 | 17 | 127 | 0.0 | 9.7 | 0.00 | 0.00 | 0.00 | 37 | 1013.5 |
| 20260502183046 | 18 | 203 | 1.6 | 6.4 | 0.00 | 0.00 | 0.00 | 35 | 1013.7 |
| 20260502181546 | 18 | 243 | 0.0 | 8.0 | 0.00 | 0.00 | 0.00 | 38 | 1013.7 |
| 20260502163035 | 17 | 181 | 0.0 | 8.0 | 0.00 | 0.00 | 0.00 | 40 | 1014.9 |
| 20260502161536 | 17 | 131 | 0.0 | 8.0 | 0.00 | 0.00 | 0.00 | 38 | 1015.0 |
| 20260502151526 | 16 | 178 | 0.0 | 8.0 | 0.00 | 0.00 | 0.00 | 45 | 1014.9 |
| 20260502123004 | 10 | 142 | 0.0 | 0.0 | 0.00 | 0.00 | 0.00 | 69 | 1014.8 |
| 20260502121502 | 9 | 131 | 0.0 | 0.0 | 0.00 | 0.00 | 0.00 | 70 | 1014.7 |
| 20260502120105 | 8 | 86 | 0.0 | 8.0 | 0.00 | 0.00 | 0.00 | 73 | 1014.6 |
| 20260502114602 | 7 | 117 | 0.0 | 6.4 | 0.00 | 0.00 | 0.00 | 77 | 1014.4 |
| 20260502113118 | 7 | 134 | 0.0 | 0.0 | 0.00 | 0.00 | 0.00 | 79 | 1014.3 |
| 20260502111601 | 7 | 135 | 0.0 | 0.0 | 0.00 | 0.00 | 0.00 | 79 | 1014.0 |
| 20260502110055 | 7 | 135 | 0.0 | 0.0 | 0.00 | 0.00 | 0.00 | 80 | 1013.9 |
| 20260502104607 | 7 | 135 | 0.0 | 0.0 | 0.00 | 0.00 | 0.00 | 80 | 1013.9 |
| 20260502103054 | 7 | 135 | 0.0 | 0.0 | 0.00 | 0.00 | 0.00 | 80 | 1013.9 |
| 20260502101607 | 7 | 135 | 0.0 | 0.0 | 0.00 | 0.00 | 0.00 | 79 | 1013.7 |
| 20260502071534 | 9 | 113 | 0.0 | 0.0 | 0.00 | 0.00 | 0.00 | 71 | 1014.4 |
| 20260502070052 | 9 | 120 | 0.0 | 0.0 | 0.00 | 0.00 | 0.00 | 69 | 1014.5 |
| 20260502064529 | 10 | 264 | 0.0 | 0.0 | 0.00 | 0.00 | 0.00 | 67 | 1014.2 |
| 20260502063032 | 10 | 205 | 0.0 | 4.8 | 0.00 | 0.00 | 0.00 | 66 | 1014.2 |
| 20260502061524 | 10 | 186 | 0.0 | 0.0 | 0.00 | 0.00 | 0.00 | 64 | 1014.2 |
| 20260502060034 | 10 | 163 | 0.0 | 0.0 | 0.00 | 0.00 | 0.00 | 63 | 1014.2 |
| 20260502054532 | 10 | 246 | 0.0 | 0.0 | 0.00 | 0.00 | 0.00 | 61 | 1014.2 |
| 20260502053015 | 11 | 302 | 0.0 | 11.3 | 0.00 | 0.00 | 0.00 | 59 | 1014.0 |
| 20260502051511 | 11 | 233 | 0.0 | 9.7 | 0.00 | 0.00 | 0.00 | 58 | 1013.7 |
| 20260502050016 | 11 | 29 | 0.0 | 12.9 | 0.00 | 0.00 | 0.00 | 58 | 1013.6 |
| 20260502044507 | 11 | 113 | 0.0 | 11.3 | 0.00 | 0.00 | 0.00 | 57 | 1013.5 |
| 20260502043005 | 12 | 128 | 1.6 | 14.5 | 0.00 | 0.00 | 0.00 | 56 | 1013.4 |
| 20260502041624 | 12 | 110 | 0.0 | 12.9 | 0.00 | 0.00 | 0.00 | 56 | 1013.7 |
| 20260502040100 | 12 | 148 | 1.6 | 12.9 | 0.00 | 0.00 | 0.00 | 54 | 1013.5 |
| 20260502034557 | 12 | 112 | 0.0 | 11.3 | 0.00 | 0.00 | 0.00 | 56 | 1013.6 |
| 20260502033057 | 12 | 131 | 1.6 | 9.7 | 0.00 | 0.00 | 0.00 | 55 | 1013.5 |
| 20260502031556 | 13 | 309 | 1.6 | 9.7 | 0.00 | 0.00 | 0.00 | 54 | 1013.7 |
| 20260502030116 | 13 | 97 | 0.0 | 14.5 | 0.00 | 0.00 | 0.00 | 55 | 1013.8 |
| 20260502024604 | 13 | 147 | 0.0 | 8.0 | 0.00 | 0.00 | 0.00 | 57 | 1013.9 |
| 20260502023127 | 13 | 127 | 0.0 | 9.7 | 0.00 | 0.00 | 0.00 | 57 | 1013.7 |
| 20260502021554 | 13 | 84 | 0.0 | 4.8 | 0.00 | 0.00 | 0.00 | 59 | 1013.6 |
| 20260502020057 | 13 | 132 | 0.0 | 8.0 | 0.00 | 0.00 | 0.00 | 59 | 1013.7 |
| 20260502014604 | 13 | 138 | 0.0 | 4.8 | 0.00 | 0.00 | 0.00 | 63 | 1013.4 |
| 20260502013100 | 14 | 115 | 0.0 | 11.3 | 0.00 | 0.00 | 0.00 | 63 | 1013.3 |
| 20260502011605 | 15 | 290 | 0.0 | 6.4 | 0.00 | 0.00 | 0.00 | 64 | 1013.1 |
| 20260502010052 | 15 | 150 | 0.0 | 6.4 | 0.00 | 0.00 | 0.00 | 64 | 1012.7 |
| 20260502004553 | 15 | 91 | 0.0 | 11.3 | 0.00 | 0.00 | 0.00 | 64 | 1012.5 |
| 20260502003051 | 15 | 129 | 0.0 | 9.7 | 0.00 | 0.00 | 0.00 | 63 | 1011.8 |
| 20260502001558 | 16 | 123 | 0.0 | 3.2 | 0.00 | 0.00 | 0.00 | 61 | 1011.7 |
| 20260502000100 | 16 | 130 | 0.0 | 0.0 | 0.00 | 0.00 | 0.00 | 57 | 1011.8 |
| 20260501234550 | 17 | 129 | 0.0 | 0.0 | 0.00 | 0.00 | 0.00 | 56 | 1011.6 |
| 20260501233104 | 17 | 130 | 0.0 | 0.0 | 0.00 | 0.00 | 0.00 | 56 | 1011.4 |
| 20260501231607 | 18 | 122 | 0.0 | 0.0 | 0.00 | 0.00 | 0.00 | 53 | 1010.9 |
| 20260501230116 | 18 | 148 | 0.0 | 0.0 | 0.00 | 0.00 | 0.00 | 51 | 1010.8 |
| 20260501224556 | 18 | 143 | 0.0 | 0.0 | 0.00 | 0.00 | 0.00 | 52 | 1010.8 |
| 20260501223053 | 18 | 115 | 0.0 | 6.4 | 0.00 | 0.00 | 0.00 | 46 | 1010.9 |
| 20260501221551 | 19 | 39 | 0.0 | 4.8 | 0.00 | 0.00 | 0.00 | 48 | 1010.7 |
| 20260501220043 | 19 | 238 | 0.0 | 8.0 | 0.00 | 0.00 | 0.00 | 45 | 1011.1 |
| 20260501214543 | 20 | 306 | 0.0 | 4.8 | 0.00 | 0.00 | 0.00 | 45 | 1011.3 |